Station Historical Data
Daily Summary for March 28, 2012 Units:  Metric    English   Both
« Previous Day
Next Day »
Daily Weekly Monthly Yearly Custom
  High: Low: Average:
Temperature: 27.3 °C 15.1 °C 20.7 °C
Dew Point: 17.4 °C 11.2 °C 13.6 °C
Humidity: 85% 42% 65%
Wind Speed: 20.9km/h 0km/h 5.8km/h
Wind Gust: 27.4km/h - -
Wind- - SSW
Pressure: 1019.2 hPa 1013.8 hPa -
Precipitation: 0 mm    
Historical Graphs
 
 
Tabular Data for March 28, 2012
Time Temperature Dew Point Pressure Wind Wind Speed Wind Gust Humidity Rainfall Rate (Hourly) Conditions
00:00 19.2 °C 11.5 °C 1017.8 hPa SSE 4.8 km/h 6.4 km/h 61% 0 mm
00:05 19.2 °C 11.7 °C 1017.8 hPa South 3.2 km/h 4.8 km/h 62% 0 mm
00:10 19.2 °C 11.7 °C 1017.8 hPa SSE 3.2 km/h 4.8 km/h 62% 0 mm
00:15 19.1 °C 11.6 °C 1017.5 hPa SSE 4.8 km/h 6.4 km/h 62% 0 mm
00:20 18.9 °C 11.7 °C 1017.5 hPa SSE 3.2 km/h 3.2 km/h 63% 0 mm
00:25 18.8 °C 11.6 °C 1017.5 hPa SSE 3.2 km/h 3.2 km/h 63% 0 mm
00:30 18.6 °C 11.6 °C 1017.5 hPa SE 3.2 km/h 3.2 km/h 64% 0 mm
00:35 18.6 °C 11.6 °C 1017.5 hPa SSE 1.6 km/h 3.2 km/h 64% 0 mm
00:40 18.4 °C 11.5 °C 1017.5 hPa SE 1.6 km/h 1.6 km/h 64% 0 mm
00:46 18.4 °C 11.4 °C 1017.5 hPa SE 1.6 km/h 1.6 km/h 64% 0 mm
00:51 18.3 °C 11.6 °C 1017.5 hPa SE 1.6 km/h 1.6 km/h 65% 0 mm
00:56 18.1 °C 11.6 °C 1017.5 hPa SE 1.6 km/h 3.2 km/h 66% 0 mm
01:01 17.8 °C 11.6 °C 1017.5 hPa SE 3.2 km/h 4.8 km/h 67% 0 mm
01:06 17.9 °C 11.7 °C 1017.5 hPa SE 3.2 km/h 6.4 km/h 67% 0 mm
01:11 18.1 °C 11.7 °C 1017.5 hPa SE 3.2 km/h 4.8 km/h 66% 0 mm
01:16 18.2 °C 11.5 °C 1017.5 hPa ESE 3.2 km/h 4.8 km/h 65% 0 mm
01:21 18.1 °C 11.6 °C 1017.5 hPa SE 1.6 km/h 4.8 km/h 66% 0 mm
01:26 17.8 °C 11.4 °C 1017.5 hPa SE 4.8 km/h 4.8 km/h 66% 0 mm
01:31 17.9 °C 11.5 °C 1017.5 hPa ESE 4.8 km/h 6.4 km/h 66% 0 mm
01:36 17.9 °C 11.5 °C 1017.5 hPa ESE 4.8 km/h 4.8 km/h 66% 0 mm
01:41 18 °C 11.3 °C 1017.2 hPa SE 3.2 km/h 4.8 km/h 65% 0 mm
01:47 17.9 °C 11.5 °C 1017.2 hPa SE 1.6 km/h 6.4 km/h 66% 0 mm
01:52 17.8 °C 11.3 °C 1017.2 hPa SE 3.2 km/h 4.8 km/h 66% 0 mm
01:57 17.7 °C 11.5 °C 1017.2 hPa SE 1.6 km/h 4.8 km/h 67% 0 mm
02:02 17.5 °C 11.3 °C 1017.2 hPa SE 1.6 km/h 3.2 km/h 67% 0 mm
02:07 17.4 °C 11.5 °C 1017.2 hPa Calm   4.8 km/h 68% 0 mm
02:12 17.2 °C 11.3 °C 1017.2 hPa SE 1.6 km/h 1.6 km/h 68% 0 mm
02:17 17.1 °C 11.4 °C 1017.2 hPa SE 1.6 km/h 3.2 km/h 69% 0 mm
02:22 16.9 °C 11.4 °C 1017.2 hPa ESE 3.2 km/h 3.2 km/h 70% 0 mm
02:27 16.9 °C 11.4 °C 1017.2 hPa SE 3.2 km/h 4.8 km/h 70% 0 mm
02:32 17 °C 11.3 °C 1017.5 hPa SE 3.2 km/h 4.8 km/h 69% 0 mm
02:37 16.9 °C 11.4 °C 1017.5 hPa SE 1.6 km/h 1.6 km/h 70% 0 mm
02:42 16.8 °C 11.3 °C 1017.5 hPa SE 1.6 km/h 1.6 km/h 70% 0 mm
02:47 16.6 °C 11.3 °C 1017.5 hPa SSE 1.6 km/h 1.6 km/h 71% 0 mm
02:52 16.5 °C 11.2 °C 1017.5 hPa SSE 1.6 km/h 1.6 km/h 71% 0 mm
02:57 16.4 °C 11.2 °C 1017.2 hPa SSE 1.6 km/h 1.6 km/h 71% 0 mm
03:02 16.4 °C 11.3 °C 1017.2 hPa SE 1.6 km/h 1.6 km/h 72% 0 mm
03:07 16.4 °C 11.4 °C 1017.2 hPa SE 1.6 km/h 1.6 km/h 72% 0 mm
03:12 16.4 °C 11.3 °C 1017.2 hPa South 1.6 km/h 3.2 km/h 72% 0 mm
03:17 16.5 °C 11.4 °C 1017.5 hPa Calm   3.2 km/h 72% 0 mm
03:22 16.6 °C 11.3 °C 1017.2 hPa South 1.6 km/h 1.6 km/h 71% 0 mm
03:27 16.8 °C 11.5 °C 1017.2 hPa SE 1.6 km/h 3.2 km/h 71% 0 mm
03:32 16.8 °C 11.5 °C 1017.2 hPa SSE 1.6 km/h 3.2 km/h 71% 0 mm
03:37 16.7 °C 11.4 °C 1017.2 hPa SSE 1.6 km/h 3.2 km/h 71% 0 mm
03:42 16.8 °C 11.5 °C 1017.2 hPa SSE 3.2 km/h 3.2 km/h 71% 0 mm
03:47 16.8 °C 11.5 °C 1017.2 hPa SE 3.2 km/h 3.2 km/h 71% 0 mm
03:52 16.8 °C 11.5 °C 1017.2 hPa SSE 1.6 km/h 3.2 km/h 71% 0 mm
03:57 16.7 °C 11.4 °C 1017.2 hPa SSE 1.6 km/h 1.6 km/h 71% 0 mm
04:02 16.7 °C 11.6 °C 1016.8 hPa SSE 1.6 km/h 1.6 km/h 72% 0 mm
04:08 16.6 °C 11.5 °C 1016.8 hPa SSE 1.6 km/h 1.6 km/h 72% 0 mm
04:13 16.4 °C 11.6 °C 1016.8 hPa SSE 1.6 km/h 3.2 km/h 73% 0 mm
04:18 16.4 °C 11.6 °C 1016.8 hPa Calm   3.2 km/h 73% 0 mm
04:23 16.3 °C 11.4 °C 1016.8 hPa SSE 1.6 km/h 3.2 km/h 73% 0 mm
04:28 16.2 °C 11.6 °C 1016.8 hPa SSE 1.6 km/h 3.2 km/h 74% 0 mm
04:33 16.1 °C 11.5 °C 1016.8 hPa SSE 1.6 km/h 3.2 km/h 74% 0 mm
04:38 16.1 °C 11.5 °C 1017.2 hPa SE 3.2 km/h 3.2 km/h 74% 0 mm
04:43 16 °C 11.4 °C 1016.8 hPa SSE 1.6 km/h 3.2 km/h 74% 0 mm
04:48 16 °C 11.4 °C 1017.2 hPa SSE 1.6 km/h 3.2 km/h 74% 0 mm
04:53 16 °C 11.4 °C 1017.2 hPa SE 1.6 km/h 3.2 km/h 74% 0 mm
04:58 15.8 °C 11.4 °C 1017.2 hPa Calm   1.6 km/h 75% 0 mm
05:03 15.6 °C 11.4 °C 1017.2 hPa SSE 1.6 km/h 3.2 km/h 76% 0 mm
05:08 15.6 °C 11.4 °C 1017.2 hPa SSE 1.6 km/h 1.6 km/h 76% 0 mm
05:13 15.7 °C 11.4 °C 1017.2 hPa SSE 1.6 km/h 1.6 km/h 76% 0 mm
05:18 15.6 °C 11.4 °C 1017.2 hPa South 3.2 km/h 3.2 km/h 76% 0 mm
05:23 15.4 °C 11.2 °C 1017.2 hPa SE 3.2 km/h 3.2 km/h 76% 0 mm
05:28 15.2 °C 11.4 °C 1017.2 hPa SSE 1.6 km/h 4.8 km/h 78% 0 mm
05:33 15.2 °C 11.4 °C 1017.2 hPa SSE 4.8 km/h 4.8 km/h 78% 0 mm
05:38 15.4 °C 11.4 °C 1017.2 hPa SSE 3.2 km/h 4.8 km/h 77% 0 mm
05:43 15.5 °C 11.5 °C 1017.5 hPa SSE 4.8 km/h 4.8 km/h 77% 0 mm
05:48 15.4 °C 11.4 °C 1017.5 hPa SSE 1.6 km/h 3.2 km/h 77% 0 mm
05:53 15.3 °C 11.3 °C 1017.5 hPa South 3.2 km/h 3.2 km/h 77% 0 mm
05:59 15.4 °C 11.4 °C 1017.5 hPa SSE 3.2 km/h 3.2 km/h 77% 0 mm
06:04 15.3 °C 11.5 °C 1017.5 hPa SSE 3.2 km/h 4.8 km/h 78% 0 mm
06:09 15.2 °C 11.6 °C 1017.5 hPa SSE 3.2 km/h 4.8 km/h 79% 0 mm
06:14 15.1 °C 11.5 °C 1017.5 hPa SSE 3.2 km/h 3.2 km/h 79% 0 mm
06:19 15.1 °C 11.4 °C 1017.5 hPa SSE 3.2 km/h 3.2 km/h 79% 0 mm
06:24 15.1 °C 11.5 °C 1017.5 hPa SSW 3.2 km/h 4.8 km/h 79% 0 mm
06:29 15.2 °C 11.6 °C 1017.5 hPa SE 4.8 km/h 6.4 km/h 79% 0 mm
06:34 15.3 °C 11.7 °C 1017.8 hPa SSE 6.4 km/h 8 km/h 79% 0 mm
06:39 15.4 °C 11.6 °C 1017.8 hPa SSE 1.6 km/h 4.8 km/h 78% 0 mm
06:44 15.4 °C 11.6 °C 1017.8 hPa South 4.8 km/h 4.8 km/h 78% 0 mm
06:49 15.6 °C 11.7 °C 1017.8 hPa South 6.4 km/h 6.4 km/h 78% 0 mm
06:54 15.8 °C 11.9 °C 1017.8 hPa SSE 4.8 km/h 8 km/h 78% 0 mm
06:59 15.9 °C 12.1 °C 1017.8 hPa SSW 6.4 km/h 6.4 km/h 78% 0 mm
07:04 15.9 °C 12.1 °C 1017.8 hPa South 4.8 km/h 9.7 km/h 78% 0 mm
07:09 16.1 °C 12.2 °C 1017.8 hPa SSW 3.2 km/h 9.7 km/h 78% 0 mm
07:14 16.1 °C 12.2 °C 1017.8 hPa SW 6.4 km/h 8 km/h 78% 0 mm
07:19 15.9 °C 12.3 °C 1017.8 hPa SSE 6.4 km/h 6.4 km/h 79% 0 mm
07:24 15.8 °C 12.2 °C 1017.8 hPa SSW 6.4 km/h 8 km/h 79% 0 mm
07:29 15.7 °C 12.4 °C 1018.2 hPa SSW 4.8 km/h 6.4 km/h 81% 0 mm
07:34 15.6 °C 12.3 °C 1018.2 hPa SSW 3.2 km/h 4.8 km/h 81% 0 mm
07:39 15.6 °C 12.3 °C 1018.2 hPa SW 6.4 km/h 8 km/h 81% 0 mm
07:44 15.4 °C 12.2 °C 1018.2 hPa SW 6.4 km/h 6.4 km/h 81% 0 mm
07:50 15.3 °C 12.2 °C 1018.2 hPa SSW 4.8 km/h 4.8 km/h 82% 0 mm
07:55 15.2 °C 12.3 °C 1018.5 hPa SW 4.8 km/h 6.4 km/h 83% 0 mm
08:00 15.4 °C 12.3 °C 1018.5 hPa WSW 3.2 km/h 6.4 km/h 82% 0 mm
08:05 15.4 °C 12.3 °C 1018.5 hPa SW 3.2 km/h 4.8 km/h 82% 0 mm
08:10 15.3 °C 12.4 °C 1018.5 hPa SSW 3.2 km/h 4.8 km/h 83% 0 mm
08:15 15.2 °C 12.3 °C 1018.5 hPa SW 4.8 km/h 4.8 km/h 83% 0 mm
08:20 15.2 °C 12.5 °C 1018.8 hPa SSW 4.8 km/h 4.8 km/h 84% 0 mm
08:25 15.4 °C 12.7 °C 1018.8 hPa SW 3.2 km/h 9.7 km/h 84% 0 mm
08:30 15.4 °C 12.7 °C 1018.8 hPa SW 4.8 km/h 4.8 km/h 84% 0 mm
08:35 15.4 °C 12.9 °C 1018.8 hPa SSW 3.2 km/h 4.8 km/h 85% 0 mm
08:36 15.4 °C 12.8 °C 1018.8 hPa SW 1.6 km/h 4.8 km/h 84% 0 mm
08:41 15.6 °C 13.1 °C 1018.8 hPa WSW 3.2 km/h 4.8 km/h 85% 0 mm
08:46 15.8 °C 13.1 °C 1019.2 hPa SSW 1.6 km/h 6.4 km/h 84% 0 mm
08:51 16 °C 13.3 °C 1019.2 hPa SW 3.2 km/h 4.8 km/h 84% 0 mm
08:56 16.3 °C 13.6 °C 1019.2 hPa SW 3.2 km/h 4.8 km/h 84% 0 mm
09:01 16.7 °C 13.9 °C 1019.2 hPa SW 3.2 km/h 6.4 km/h 84% 0 mm
09:06 17.1 °C 14.2 °C 1019.2 hPa SSW 8 km/h 8 km/h 83% 0 mm
09:11 17.3 °C 14.2 °C 1019.2 hPa SW 3.2 km/h 11.3 km/h 82% 0 mm
09:16 17.5 °C 14.4 °C 1019.2 hPa SSW 4.8 km/h 9.7 km/h 82% 0 mm
09:21 17.8 °C 14.5 °C 1019.2 hPa SW 11.3 km/h 12.9 km/h 81% 0 mm
09:26 17.8 °C 14.3 °C 1019.2 hPa South 6.4 km/h 12.9 km/h 80% 0 mm
09:31 17.8 °C 14.6 °C 1019.2 hPa SW 12.9 km/h 12.9 km/h 81% 0 mm
09:36 17.9 °C 14.6 °C 1019.2 hPa SW 1.6 km/h 8 km/h 81% 0 mm
09:41 17.9 °C 14.8 °C 1019.2 hPa SSW 4.8 km/h 11.3 km/h 82% 0 mm
09:46 18.1 °C 14.7 °C 1019.2 hPa SSW 4.8 km/h 9.7 km/h 81% 0 mm
09:51 18.2 °C 15.1 °C 1019.2 hPa SW 3.2 km/h 12.9 km/h 82% 0 mm
09:56 18.7 °C 15.3 °C 1019.2 hPa South 4.8 km/h 9.7 km/h 81% 0 mm
10:01 18.8 °C 15.1 °C 1019.2 hPa SSW 8 km/h 14.5 km/h 79% 0 mm
10:07 18.6 °C 15.1 °C 1019.2 hPa SSW 6.4 km/h 17.7 km/h 80% 0 mm
10:12 18.8 °C 15.3 °C 1019.2 hPa SSW 4.8 km/h 9.7 km/h 80% 0 mm
10:17 19 °C 15.7 °C 1019.2 hPa SW 9.7 km/h 11.3 km/h 81% 0 mm
10:22 19.3 °C 15.7 °C 1019.2 hPa SSW 8 km/h 9.7 km/h 80% 0 mm
10:27 19.2 °C 15.7 °C 1019.2 hPa SW 6.4 km/h 12.9 km/h 80% 0 mm
10:32 19.4 °C 15.8 °C 1018.8 hPa WSW 8 km/h 11.3 km/h 80% 0 mm
10:37 19.4 °C 15.9 °C 1018.8 hPa SSE 6.4 km/h 9.7 km/h 80% 0 mm
10:42 19.6 °C 16.1 °C 1019.2 hPa SSE 6.4 km/h 12.9 km/h 80% 0 mm
10:47 20.2 °C 16.2 °C 1019.2 hPa SSW 8 km/h 8 km/h 78% 0 mm
10:52 20.6 °C 16.2 °C 1019.2 hPa WSW 4.8 km/h 9.7 km/h 76% 0 mm
10:57 20.9 °C 16.6 °C 1019.2 hPa SW 9.7 km/h 12.9 km/h 76% 0 mm
11:02 21 °C 16.4 °C 1018.8 hPa WSW 6.4 km/h 16.1 km/h 75% 0 mm
11:07 21.4 °C 16.6 °C 1018.8 hPa WSW 9.7 km/h 14.5 km/h 74% 0 mm
11:12 21.8 °C 16.7 °C 1018.8 hPa SSW 9.7 km/h 11.3 km/h 73% 0 mm
11:17 22.2 °C 16.9 °C 1018.8 hPa SSW 11.3 km/h 12.9 km/h 72% 0 mm
11:22 22.3 °C 16.8 °C 1018.8 hPa SW 17.7 km/h 17.7 km/h 71% 0 mm
11:27 22.1 °C 16.4 °C 1018.8 hPa SW 9.7 km/h 16.1 km/h 70% 0 mm
11:32 22.1 °C 16.3 °C 1018.8 hPa WSW 14.5 km/h 16.1 km/h 70% 0 mm
11:37 22.1 °C 16.4 °C 1018.8 hPa SW 12.9 km/h 16.1 km/h 70% 0 mm
11:42 22.6 °C 16.9 °C 1018.8 hPa SW 4.8 km/h 16.1 km/h 70% 0 mm
11:47 23 °C 16.8 °C 1018.8 hPa SSW 9.7 km/h 12.9 km/h 68% 0 mm
11:52 23.3 °C 16.3 °C 1018.8 hPa SW 14.5 km/h 19.3 km/h 65% 0 mm
11:57 23.2 °C 16.5 °C 1018.8 hPa SSW 8 km/h 12.9 km/h 66% 0 mm
12:02 23.3 °C 16.6 °C 1018.8 hPa WSW 11.3 km/h 14.5 km/h 66% 0 mm
12:07 23.6 °C 16.8 °C 1018.8 hPa WSW 11.3 km/h 14.5 km/h 66% 0 mm
12:12 23.4 °C 16.7 °C 1018.5 hPa West 4.8 km/h 11.3 km/h 66% 0 mm
12:17 23.2 °C 16.8 °C 1018.8 hPa West 4.8 km/h 11.3 km/h 67% 0 mm
12:23 23.6 °C 16.8 °C 1018.5 hPa West 11.3 km/h 12.9 km/h 66% 0 mm
12:28 23.8 °C 17.1 °C 1018.5 hPa West 8 km/h 19.3 km/h 66% 0 mm
12:33 23.8 °C 16.6 °C 1018.5 hPa West 12.9 km/h 12.9 km/h 64% 0 mm
12:38 23.9 °C 16.7 °C 1018.5 hPa SW 6.4 km/h 12.9 km/h 64% 0 mm
12:43 24.3 °C 17.1 °C 1018.5 hPa WNW 11.3 km/h 11.3 km/h 64% 0 mm
12:48 24.4 °C 16.9 °C 1018.2 hPa WSW 16.1 km/h 16.1 km/h 63% 0 mm
12:53 24.4 °C 16.7 °C 1018.5 hPa SW 16.1 km/h 22.5 km/h 62% 0 mm
12:58 24.7 °C 16.7 °C 1018.2 hPa West 6.4 km/h 14.5 km/h 61% 0 mm
13:03 24.8 °C 17.1 °C 1018.2 hPa WSW 12.9 km/h 17.7 km/h 62% 0 mm
13:08 25 °C 16.9 °C 1018.2 hPa WSW 19.3 km/h 19.3 km/h 61% 0 mm
13:13 25.1 °C 17.3 °C 1017.8 hPa South 6.4 km/h 16.1 km/h 62% 0 mm
13:18 25.3 °C 17.2 °C 1017.8 hPa SW 8 km/h 11.3 km/h 61% 0 mm
13:23 25.1 °C 17.3 °C 1017.8 hPa SSW 6.4 km/h 16.1 km/h 62% 0 mm
13:28 25.1 °C 17 °C 1017.8 hPa SW 11.3 km/h 11.3 km/h 61% 0 mm
13:33 25.1 °C 16.3 °C 1017.8 hPa WSW 4.8 km/h 14.5 km/h 58% 0 mm
13:38 25.1 °C 17 °C 1017.5 hPa South 9.7 km/h 16.1 km/h 61% 0 mm
13:43 25.4 °C 16.3 °C 1017.5 hPa WNW 8 km/h 12.9 km/h 57% 0 mm
13:48 25.7 °C 17.4 °C 1017.5 hPa SSW 11.3 km/h 14.5 km/h 60% 0 mm
13:53 25.6 °C 16.4 °C 1017.5 hPa West 12.9 km/h 19.3 km/h 57% 0 mm
13:58 25.8 °C 16.9 °C 1017.5 hPa SW 12.9 km/h 16.1 km/h 58% 0 mm
14:03 25.8 °C 16.7 °C 1017.2 hPa SSW 8 km/h 12.9 km/h 57% 0 mm
14:08 25.6 °C 16.4 °C 1017.2 hPa WSW 6.4 km/h 14.5 km/h 57% 0 mm
14:13 25.6 °C 16.7 °C 1017.2 hPa WSW 9.7 km/h 11.3 km/h 58% 0 mm
14:19 25.7 °C 16 °C 1016.8 hPa SW 8 km/h 11.3 km/h 55% 0 mm
14:24 25.8 °C 16.1 °C 1016.8 hPa SW 17.7 km/h 17.7 km/h 55% 0 mm
14:29 25.8 °C 15.6 °C 1016.8 hPa WSW 16.1 km/h 16.1 km/h 53% 0 mm
14:34 26.2 °C 15.8 °C 1016.8 hPa SW 4.8 km/h 14.5 km/h 53% 0 mm
14:39 26.5 °C 15.6 °C 1016.5 hPa West 6.4 km/h 9.7 km/h 51% 0 mm
14:44 26.7 °C 14.8 °C 1016.5 hPa SW 14.5 km/h 25.7 km/h 48% 0 mm
14:49 26.9 °C 15.7 °C 1016.1 hPa SW 12.9 km/h 19.3 km/h 50% 0 mm
14:54 26.4 °C 15.1 °C 1016.1 hPa SW 8 km/h 16.1 km/h 50% 0 mm
14:59 26.3 °C 14.7 °C 1016.1 hPa SW 20.9 km/h 24.1 km/h 49% 0 mm
15:04 26.1 °C 14.5 °C 1016.1 hPa WSW 6.4 km/h 19.3 km/h 49% 0 mm
15:09 25.9 °C 15.3 °C 1015.8 hPa WSW 8 km/h 12.9 km/h 52% 0 mm
15:14 26.1 °C 14.6 °C 1016.1 hPa SW 14.5 km/h 19.3 km/h 49% 0 mm
15:19 26.5 °C 13.9 °C 1015.8 hPa WSW 11.3 km/h 19.3 km/h 46% 0 mm
15:24 26.8 °C 15.2 °C 1015.5 hPa WSW 9.7 km/h 17.7 km/h 49% 0 mm
15:29 26.8 °C 14.3 °C 1015.5 hPa SSW 12.9 km/h 24.1 km/h 46% 0 mm
15:34 26.7 °C 14.2 °C 1015.5 hPa SW 17.7 km/h 22.5 km/h 46% 0 mm
15:39 26.4 °C 14.6 °C 1015.5 hPa SW 9.7 km/h 20.9 km/h 48% 0 mm
15:44 26.6 °C 14.7 °C 1015.5 hPa WSW 17.7 km/h 20.9 km/h 48% 0 mm
15:49 26.8 °C 13.9 °C 1015.5 hPa SSW 9.7 km/h 12.9 km/h 45% 0 mm
15:54 27 °C 14.1 °C 1015.5 hPa SW 20.9 km/h 27.4 km/h 45% 0 mm
15:59 26.9 °C 14.3 °C 1015.1 hPa WSW 8 km/h 19.3 km/h 46% 0 mm
16:04 27.1 °C 13.8 °C 1015.1 hPa SW 11.3 km/h 22.5 km/h 44% 0 mm
16:09 27.1 °C 14.2 °C 1015.1 hPa WSW 9.7 km/h 17.7 km/h 45% 0 mm
16:14 27 °C 14.1 °C 1015.1 hPa SSW 9.7 km/h 17.7 km/h 45% 0 mm
16:19 27.3 °C 14.7 °C 1014.8 hPa South 8 km/h 11.3 km/h 46% 0 mm
16:24 27.3 °C 14 °C 1014.8 hPa SW 16.1 km/h 16.1 km/h 44% 0 mm
16:29 27.2 °C 13.2 °C 1014.8 hPa SSW 16.1 km/h 24.1 km/h 42% 0 mm
16:34 26.9 °C 13.6 °C 1014.8 hPa West 11.3 km/h 20.9 km/h 44% 0 mm
16:40 27.1 °C 14.2 °C 1014.8 hPa South 9.7 km/h 11.3 km/h 45% 0 mm
16:45 27.1 °C 13.4 °C 1014.4 hPa West 17.7 km/h 25.7 km/h 43% 0 mm
16:50 26.6 °C 12.6 °C 1014.8 hPa West 4.8 km/h 16.1 km/h 42% 0 mm
16:55 26.4 °C 13.9 °C 1014.8 hPa SSW 4.8 km/h 16.1 km/h 46% 0 mm
17:01 26.4 °C 15.1 °C 1014.8 hPa SW 12.9 km/h 17.7 km/h 50% 0 mm
17:06 26.2 °C 15 °C 1014.4 hPa SW 9.7 km/h 16.1 km/h 50% 0 mm
17:11 26.2 °C 14.6 °C 1014.4 hPa SSW 14.5 km/h 16.1 km/h 49% 0 mm
17:16 26.2 °C 14.7 °C 1014.4 hPa SW 14.5 km/h 17.7 km/h 49% 0 mm
17:21 26.3 °C 14.7 °C 1014.4 hPa SSE 4.8 km/h 14.5 km/h 49% 0 mm
17:26 26.4 °C 13.8 °C 1014.4 hPa South 12.9 km/h 19.3 km/h 46% 0 mm
17:31 26.3 °C 13.8 °C 1014.4 hPa WSW 17.7 km/h 20.9 km/h 46% 0 mm
17:36 26.2 °C 13.7 °C 1014.4 hPa WSW 9.7 km/h 17.7 km/h 46% 0 mm
17:41 26.2 °C 13.7 °C 1014.1 hPa SW 9.7 km/h 14.5 km/h 46% 0 mm
17:46 26.3 °C 13.8 °C 1014.1 hPa WSW 8 km/h 19.3 km/h 46% 0 mm
17:51 26.3 °C 13.4 °C 1014.1 hPa WSW 8 km/h 12.9 km/h 45% 0 mm
17:56 26.4 °C 13.8 °C 1014.1 hPa South 4.8 km/h 14.5 km/h 46% 0 mm
18:01 26.3 °C 13.1 °C 1014.1 hPa SW 11.3 km/h 17.7 km/h 44% 0 mm
18:06 26.3 °C 13.1 °C 1014.1 hPa SSW 11.3 km/h 14.5 km/h 44% 0 mm
18:11 26.4 °C 13.5 °C 1014.1 hPa SW 16.1 km/h 16.1 km/h 45% 0 mm
18:16 26.4 °C 13.2 °C 1013.8 hPa SW 12.9 km/h 19.3 km/h 44% 0 mm
18:21 26.4 °C 13.5 °C 1013.8 hPa WSW 8 km/h 12.9 km/h 45% 0 mm
18:26 26.4 °C 13.6 °C 1013.8 hPa SSW 8 km/h 17.7 km/h 45% 0 mm
18:31 26.3 °C 13.4 °C 1013.8 hPa SSW 4.8 km/h 17.7 km/h 45% 0 mm
18:36 26.3 °C 13.1 °C 1013.8 hPa SSW 6.4 km/h 16.1 km/h 44% 0 mm
18:41 26.3 °C 13.8 °C 1013.8 hPa SSW 6.4 km/h 11.3 km/h 46% 0 mm
18:47 26.3 °C 13.8 °C 1013.8 hPa SSW 14.5 km/h 14.5 km/h 46% 0 mm
18:52 26.2 °C 14 °C 1013.8 hPa SW 8 km/h 11.3 km/h 47% 0 mm
18:57 26.1 °C 13.3 °C 1013.8 hPa West 9.7 km/h 14.5 km/h 45% 0 mm
19:02 26 °C 13.5 °C 1013.8 hPa SW 11.3 km/h 11.3 km/h 46% 0 mm
19:07 25.9 °C 13.7 °C 1013.8 hPa WSW 4.8 km/h 9.7 km/h 47% 0 mm
19:12 25.8 °C 13.7 °C 1013.8 hPa WSW 6.4 km/h 8 km/h 47% 0 mm
19:17 25.7 °C 13.9 °C 1013.8 hPa SW 3.2 km/h 6.4 km/h 48% 0 mm
19:22 25.6 °C 13.8 °C 1013.8 hPa SW 4.8 km/h 11.3 km/h 48% 0 mm
19:27 25.4 °C 13.9 °C 1013.8 hPa SSE 1.6 km/h 3.2 km/h 49% 0 mm
19:32 25.4 °C 13.9 °C 1013.8 hPa SW 3.2 km/h 4.8 km/h 49% 0 mm
19:37 25.3 °C 14.1 °C 1013.8 hPa SW 1.6 km/h 4.8 km/h 50% 0 mm
19:42 25.1 °C 13.9 °C 1013.8 hPa SSW 1.6 km/h 4.8 km/h 50% 0 mm
19:47 24.8 °C 13.9 °C 1013.8 hPa South 3.2 km/h 3.2 km/h 51% 0 mm
19:52 24.4 °C 13.9 °C 1013.8 hPa SSE 3.2 km/h 4.8 km/h 52% 0 mm
19:57 24.1 °C 13.9 °C 1013.8 hPa SSE 3.2 km/h 4.8 km/h 53% 0 mm
20:02 23.8 °C 13.9 °C 1014.1 hPa SSE 3.2 km/h 6.4 km/h 54% 0 mm
20:07 23.6 °C 14 °C 1014.1 hPa SSE 3.2 km/h 4.8 km/h 55% 0 mm
20:12 23.4 °C 13.8 °C 1014.1 hPa SSE 4.8 km/h 6.4 km/h 55% 0 mm
20:17 23.2 °C 13.7 °C 1014.1 hPa South 1.6 km/h 3.2 km/h 55% 0 mm
20:22 23 °C 13.8 °C 1014.1 hPa South 3.2 km/h 4.8 km/h 56% 0 mm
20:27 22.7 °C 13.8 °C 1014.1 hPa SW 1.6 km/h 1.6 km/h 57% 0 mm
20:32 22.5 °C 13.8 °C 1014.1 hPa SSE 3.2 km/h 4.8 km/h 58% 0 mm
20:37 22.3 °C 13.9 °C 1014.1 hPa SSE 3.2 km/h 3.2 km/h 59% 0 mm
20:43 22.1 °C 13.7 °C 1014.1 hPa Calm   3.2 km/h 59% 0 mm
20:48 22 °C 13.6 °C 1014.1 hPa SSE 1.6 km/h 3.2 km/h 59% 0 mm
20:53 21.9 °C 13.5 °C 1014.1 hPa SSE 3.2 km/h 3.2 km/h 59% 0 mm
20:58 21.8 °C 13.4 °C 1014.1 hPa SSE 3.2 km/h 4.8 km/h 59% 0 mm
21:03 21.7 °C 13.6 °C 1014.4 hPa SSE 3.2 km/h 3.2 km/h 60% 0 mm
21:08 21.7 °C 13.3 °C 1014.4 hPa SSE 1.6 km/h 3.2 km/h 59% 0 mm
21:13 21.7 °C 13.4 °C 1014.4 hPa SE 3.2 km/h 6.4 km/h 59% 0 mm
21:18 21.7 °C 13.6 °C 1014.4 hPa SSE 3.2 km/h 4.8 km/h 60% 0 mm
21:23 21.6 °C 13.4 °C 1014.4 hPa SSE 1.6 km/h 3.2 km/h 60% 0 mm
21:28 21.4 °C 13.4 °C 1014.4 hPa South 3.2 km/h 3.2 km/h 60% 0 mm
21:33 21.4 °C 13.3 °C 1014.4 hPa SSW 3.2 km/h 3.2 km/h 60% 0 mm
21:38 21.3 °C 13.4 °C 1014.8 hPa SSW 1.6 km/h 1.6 km/h 61% 0 mm
21:43 21.2 °C 13.3 °C 1014.8 hPa SSW 1.6 km/h 3.2 km/h 61% 0 mm
21:48 21.1 °C 13.2 °C 1014.8 hPa SSW 3.2 km/h 4.8 km/h 61% 0 mm
21:53 21.1 °C 13.2 °C 1014.8 hPa South 1.6 km/h 4.8 km/h 61% 0 mm
21:58 20.9 °C 13.2 °C 1014.8 hPa SE 3.2 km/h 4.8 km/h 61% 0 mm
22:03 20.9 °C 13.4 °C 1014.8 hPa South 3.2 km/h 3.2 km/h 62% 0 mm
22:08 20.8 °C 13.2 °C 1014.8 hPa South 1.6 km/h 3.2 km/h 62% 0 mm
22:13 20.7 °C 13.2 °C 1015.1 hPa SSE 3.2 km/h 3.2 km/h 62% 0 mm
22:19 20.6 °C 13.3 °C 1015.1 hPa SSW 1.6 km/h 3.2 km/h 63% 0 mm
22:24 20.6 °C 13.3 °C 1015.1 hPa SSW 1.6 km/h 4.8 km/h 63% 0 mm
22:29 20.5 °C 13.2 °C 1015.1 hPa Calm   3.2 km/h 63% 0 mm
22:34 20.4 °C 13.3 °C 1015.1 hPa Calm   1.6 km/h 64% 0 mm
22:39 20.2 °C 13.2 °C 1015.1 hPa South 1.6 km/h 1.6 km/h 64% 0 mm
22:44 20.1 °C 13.3 °C 1015.1 hPa SSW 1.6 km/h 3.2 km/h 65% 0 mm
22:49 20 °C 13.2 °C 1015.1 hPa SSE 1.6 km/h 3.2 km/h 65% 0 mm
22:54 19.9 °C 13.2 °C 1015.1 hPa SSE 3.2 km/h 3.2 km/h 65% 0 mm
22:59 19.9 °C 13.1 °C 1015.1 hPa SSE 3.2 km/h 3.2 km/h 65% 0 mm
23:04 19.8 °C 13.1 °C 1015.1 hPa SSE 1.6 km/h 3.2 km/h 65% 0 mm
23:09 19.7 °C 13.2 °C 1015.1 hPa South 1.6 km/h 3.2 km/h 66% 0 mm
23:14 19.6 °C 13.1 °C 1015.1 hPa SE 3.2 km/h 3.2 km/h 66% 0 mm
23:19 19.5 °C 13.2 °C 1015.1 hPa SSW 3.2 km/h 3.2 km/h 67% 0 mm
23:24 19.4 °C 13.1 °C 1015.1 hPa South 3.2 km/h 4.8 km/h 67% 0 mm
23:29 19.3 °C 13.1 °C 1014.8 hPa SW 1.6 km/h 6.4 km/h 67% 0 mm
23:34 19.2 °C 13.2 °C 1014.8 hPa SW 1.6 km/h 3.2 km/h 68% 0 mm
23:39 19.1 °C 13.1 °C 1015.1 hPa WSW 3.2 km/h 6.4 km/h 68% 0 mm
23:44 19.1 °C 13.1 °C 1015.1 hPa SW 3.2 km/h 4.8 km/h 68% 0 mm
23:49 19 °C 13.2 °C 1014.8 hPa SW 4.8 km/h 6.4 km/h 69% 0 mm
23:54 18.8 °C 13.2 °C 1014.8 hPa SW 1.6 km/h 8 km/h 70% 0 mm
23:59 18.7 °C 13.1 °C 1014.8 hPa SSW 3.2 km/h 6.4 km/h 70% 0 mm
Compliments of Weather Underground